Location: Ch�tillon
(48.8024°N, 2.2935°E)
Time: 22:07:33
(UTC+00:00)

DIWATA 2B (PO-101) - Pass Details

Date: 04 July 2022
Orbit: 583 x 599 km, 98.0° (Epoch: 07 August)

Event Time Altitude Azimuth Distance (km) Brightness Sun altitude
Exits shadow 02:04:38 18° 192° (SSW) 1,477 ? -12.7°
Maximum altitude 02:07:30 47° 260° (W) 799 ? -12.5°
Drops below altitude 10° 02:11:36 10° 335° (NNW) 1,951 ? -12.1°
Sets 02:13:51 0° 342° (NNW) 2,857 ? -11.9°
